Stations météo

Publicité
Tarbes/Ossun, France (7621): Température de l'air & dewpoint: 21.06.2019 12:00:00 - 27.06.2019 12:00:00 (CEST)Tarbes/Ossun, France (7621): Température de l'air 5cm: 21.06.2019 12:00:00 - 27.06.2019 12:00:00 (CEST)Tarbes/Ossun, France (7621): Température de l'air -20cm & Température de l'air -100cm: 21.06.2019 12:00:00 - 27.06.2019 12:00:00 (CEST)Tarbes/Ossun, France (7621): Vitesse du vent & gusts: 21.06.2019 12:00:00 - 27.06.2019 12:00:00 (CEST)Tarbes/Ossun, France (7621): Direction du vent: 21.06.2019 12:00:00 - 27.06.2019 12:00:00 (CEST)Tarbes/Ossun, France (7621): reduced air pressure: 21.06.2019 12:00:00 - 27.06.2019 12:00:00 (CEST)Tarbes/Ossun, France (7621): visibility: 21.06.2019 12:00:00 - 27.06.2019 12:00:00 (CEST)Tarbes/Ossun, France (7621): Ensoleillement: 21.06.2019 12:00:00 - 27.06.2019 12:00:00 (CEST)Tarbes/Ossun, France (7621): Quantités de précipitations: 21.06.2019 12:00:00 - 27.06.2019 12:00:00 (CEST)
Date & Time tt [°C] td [°C] tt 5cm [°C] tt -20cm [°C] tt -100cm [°C] ff [km/h] ff [knt] fx [km/h] fx [knt] dd ppp [hPa] vv [km] sd [min] rr [mm]
27.06.2019 12:00:00 - - - - - - - - - - - - - -
27.06.2019 11:00:00 25,5 21,6 26,3 22,2 16,7 6 3 16 8 NNE 1017,7 9 58 0,0
27.06.2019 10:00:00 22,3 20,6 23,4 22,3 16,7 9 5 18 10 NE 1018,4 5 3 0,0
27.06.2019 09:00:00 21,0 20,5 21,7 22,4 16,7 8 4 14 8 E 1018,8 4,4 0 0,0
27.06.2019 08:00:00 20,7 20,4 21,3 22,4 16,7 7 4 11 6 ENE 1018,5 0,6 0 0,0
27.06.2019 07:00:00 20,7 20,2 20,6 22,5 16,6 4 2 8 5 ENE 1018,2 4,0 0 0,0
27.06.2019 06:00:00 20,9 20,4 19,4 22,7 16,7 5 3 9 5 E 1018,1 4,2 0 0,0
27.06.2019 05:00:00 21,5 21,0 19,6 22,8 16,7 4 2 27 15 W 1017,7 1,3 0 0,0
27.06.2019 04:00:00 22,8 22,6 18,0 22,9 16,7 21 11 33 18 WSW 1017,1 0,3 0 0,0
27.06.2019 03:00:00 25,2 9,9 17,5 23,0 16,7 8 4 21 12 W 1016,8 33 0 0,0
27.06.2019 02:00:00 24,8 11,4 18,2 23,1 16,6 11 6 27 15 SSE 1016,1 31 0 0,0
27.06.2019 01:00:00 23,2 13,4 18,8 23,1 16,6 17 9 24 13 S 1016,0 28 0 0,0
27.06.2019 00:00:00 24,5 17,5 20,3 23,1 16,6 13 7 24 13 S 1015,6 31 0 0,0
26.06.2019 23:00:00 26,6 21,8 23,2 23,1 16,6 13 7 26 14 SSE 1014,6 23 0 0,0
26.06.2019 22:00:00 28,5 24,5 25,2 23,0 16,6 12 6 21 12 SE 1013,6 19 0 0,0
26.06.2019 21:00:00 32,0 24,1 27,4 22,9 16,6 5 3 10 6 E 1012,6 20 57 0,0
26.06.2019 20:00:00 34,4 23,1 30,4 22,6 16,6 6 3 16 9 ENE 1012,0 26 60 0,0
26.06.2019 19:00:00 35,0 23,7 32,6 22,4 16,6 7 4 18 10 ENE 1011,6 27 60 0,0
26.06.2019 18:00:00 34,8 24,1 35,2 22,2 16,6 9 5 20 11 ENE 1011,8 27 60 0,0
26.06.2019 17:00:00 34,3 23,3 36,1 21,9 16,5 10 5 22 12 NE 1012,2 20 60 0,0
26.06.2019 16:00:00 33,7 22,2 36,0 21,7 16,5 9 5 25 14 ENE 1012,6 20 60 0,0
26.06.2019 15:00:00 32,3 22,1 36,2 21,4 16,5 13 7 24 13 NE 1013,2 42 60 0,0
26.06.2019 14:00:00 30,7 22,6 37,2 21,3 16,5 10 6 20 11 ENE 1014,0 20 60 0,0
26.06.2019 13:00:00 28,1 22,1 31,7 21,2 16,5 6 4 17 9 NNW 1014,7 14 60 0,0
26.06.2019 12:00:00 24,3 21,0 29,5 21,1 16,5 8 4 23 12 NNE 1015,4 8 41 0,0
26.06.2019 11:00:00 23,2 21,3 28,1 21,1 16,5 11 6 17 9 N 1015,8 6 60 0,0
26.06.2019 10:00:00 21,4 20,6 23,9 21,2 16,5 5 3 12 7 NNE 1016,0 6 54 0,0
26.06.2019 09:00:00 19,6 19,6 21,3 21,3 16,5 4 2 10 5 WNW 1016,5 1,4 32 0,0
26.06.2019 08:00:00 18,7 18,7 19,3 21,4 16,4 4 2 10 5 N 1016,5 0,1 8 0,0
26.06.2019 07:00:00 18,0 18,0 18,2 21,5 16,4 4 2 8 4 N 1016,6 0,1 9 0,0
26.06.2019 06:00:00 17,7 17,4 18,4 21,6 16,5 2 1 6 3 NNE 1015,9 0,1 0 0,0
26.06.2019 05:00:00 18,8 18,5 16,1 21,7 16,4 2 1 13 7 W 1015,6 0,1 0 0,2
26.06.2019 04:00:00 18,8 18,3 17,5 21,8 16,4 4 2 12 6 SW 1015,8 10 0 0,0
26.06.2019 03:00:00 18,6 17,9 18,1 21,8 16,4 7 4 12 6 S 1015,6 8 0 0,0
26.06.2019 02:00:00 20,1 18,9 17,9 21,9 16,4 8 4 12 7 SSE 1015,6 11 0 0,0
26.06.2019 01:00:00 20,9 19,4 19,6 22,0 16,5 9 5 13 7 SSE 1015,8 11 0 0,0
26.06.2019 00:00:00 21,5 19,6 20,0 22,0 16,4 8 5 14 8 S 1016,2 10 0 0,0
25.06.2019 23:00:00 21,2 19,5 20,1 22,0 16,4 9 5 11 6 S 1016,2 11 0 0,0
25.06.2019 22:00:00 24,1 20,0 20,7 21,9 16,4 4 2 10 5 W 1015,4 15 0 0,0
25.06.2019 21:00:00 26,5 19,6 24,1 21,8 16,4 4 2 14 7 ENE 1015,0 19 58 0,0
25.06.2019 20:00:00 27,4 19,7 26,3 21,6 16,4 7 4 19 10 E 1014,9 19 60 0,0
25.06.2019 19:00:00 27,7 19,0 28,5 21,4 16,4 9 5 21 11 ENE 1014,7 15 60 0,0
25.06.2019 18:00:00 27,8 19,8 31,2 21,1 16,4 8 4 21 11 ENE 1014,7 17 60 0,0
25.06.2019 17:00:00 27,5 19,8 32,6 20,9 16,4 12 7 22 12 NNE 1015,1 19 60 0,0
25.06.2019 16:00:00 27,3 20,4 33,2 20,6 16,4 14 8 27 15 NNE 1015,4 13 60 0,0
25.06.2019 15:00:00 27,1 20,4 33,0 20,5 16,4 8 5 30 16 NNE 1015,6 25 52 0,0
25.06.2019 14:00:00 26,4 19,5 33,5 20,3 16,4 12 6 26 14 ENE 1015,9 12 58 0,0
25.06.2019 13:00:00 25,5 18,4 31,0 20,2 16,4 10 5 23 12 ENE 1016,2 20 60 0,0
25.06.2019 12:00:00 24,1 18,7 27,9 20,2 16,3 9 5 22 12 ENE 1016,5 20 27 0,0
25.06.2019 11:00:00 23,4 17,2 26,6 20,2 16,3 11 6 19 11 E 1016,4 20 47 0,0
25.06.2019 10:00:00 22,6 17,1 24,6 20,2 16,3 10 5 17 9 ESE 1016,7 21 58 0,0
25.06.2019 09:00:00 21,7 17,3 19,9 20,3 16,3 5 3 9 5 ENE 1016,6 17 48 0,0
25.06.2019 08:00:00 19,1 16,9 18,5 20,4 16,3 5 3 10 5 SSE 1016,8 16 22 0,0
25.06.2019 07:00:00 18,0 16,7 17,7 20,5 16,3 4 2 13 7 S 1016,9 15 0 0,0
25.06.2019 06:00:00 17,9 16,4 17,7 20,5 16,3 9 5 13 7 SSE 1016,8 13 0 0,0
25.06.2019 05:00:00 17,5 16,2 17,6 20,6 16,3 8 5 14 7 SSE 1016,8 15 0 0,0
25.06.2019 04:00:00 17,3 16,2 17,7 20,7 16,3 9 5 23 13 SW 1016,7 12 0 0,0
25.06.2019 03:00:00 17,3 16,2 17,7 20,7 16,3 14 8 32 17 W 1016,6 10 0 0,0
25.06.2019 02:00:00 18,0 17,4 18,4 20,7 16,3 15 8 31 17 WSW 1016,1 4,3 0 0,0
25.06.2019 01:00:00 18,2 17,7 18,7 20,8 16,3 18 10 41 22 W 1015,5 3,1 0 0,0
25.06.2019 00:00:00 19,9 18,6 20,1 20,8 16,2 16 8 34 19 W 1014,7 3,7 0 0,0
24.06.2019 23:00:00 22,2 19,7 19,3 20,8 16,3 5 3 20 11 WSW 1013,6 15 0 0,0
24.06.2019 22:00:00 21,6 19,2 19,3 20,7 16,2 6 4 16 8 WNW 1013,1 13 0 0,0
24.06.2019 21:00:00 24,0 19,7 22,7 20,6 16,2 6 3 19 10 NE 1012,2 17 51 0,0
24.06.2019 20:00:00 24,8 20,3 24,3 20,5 16,2 14 8 22 12 N 1011,9 13 57 0,0
24.06.2019 19:00:00 26,0 20,8 27,3 20,4 16,2 13 7 27 14 NNE 1011,4 14 58 0,0
24.06.2019 18:00:00 25,2 20,2 26,4 20,3 16,2 11 6 19 10 NNE 1011,4 12 4 0,0
24.06.2019 17:00:00 24,4 19,5 26,8 20,2 16,2 8 4 16 8 ENE 1012,0 13 0 0,0
24.06.2019 16:00:00 23,4 19,1 26,7 20,1 16,2 6 4 14 8 NNE 1013,1 14 0 0,0
24.06.2019 15:00:00 23,0 18,7 28,0 20,1 16,2 5 3 14 8 N 1013,2 13 2 0,0
24.06.2019 14:00:00 22,0 18,6 24,7 20,1 16,2 6 3 13 7 N 1013,4 13 20 0,0
24.06.2019 13:00:00 19,9 17,9 21,6 20,1 16,2 4 2 11 6 NNE 1013,6 10 0 0,0
24.06.2019 12:00:00 18,1 16,6 20,3 20,2 16,2 3 1 9 5 S 1013,8 8 0 0,0
24.06.2019 11:00:00 17,1 16,5 19,4 20,3 16,2 3 2 11 6 W 1013,7 5 0 0,0
24.06.2019 10:00:00 17,0 16,8 18,8 20,3 16,1 6 4 18 10 W 1013,7 2,0 0 0,0
24.06.2019 09:00:00 17,0 16,7 18,1 20,5 16,2 10 5 24 13 WSW 1013,8 2,9 0 0,0
24.06.2019 08:00:00 17,3 16,7 17,8 20,6 16,2 16 9 34 18 W 1013,4 4,7 15 0,0
24.06.2019 07:00:00 17,5 16,9 16,5 20,6 16,1 12 7 20 11 WSW 1012,7 11 15 0,0
24.06.2019 06:00:00 17,1 16,5 16,0 20,7 16,1 7 4 11 6 SW 1012,0 11 0 0,0
24.06.2019 05:00:00 17,2 16,7 16,8 20,8 16,1 5 3 7 4 N 1011,6 7 0 0,0
24.06.2019 04:00:00 18,3 17,1 17,7 20,9 16,1 6 3 11 6 W 1011,5 11 0 0,0
24.06.2019 03:00:00 19,4 17,9 18,6 20,9 16,1 9 5 16 9 WSW 1012,2 20 0 0,0
24.06.2019 02:00:00 20,3 18,1 19,1 21,0 16,1 8 4 19 11 WSW 1012,6 21 0 0,0
24.06.2019 01:00:00 21,4 19,1 19,6 21,0 16,1 10 6 16 9 W 1012,3 18 0 0,0
24.06.2019 00:00:00 21,7 19,4 20,0 21,0 16,1 9 5 11 6 S 1012,4 20 0 0,0
23.06.2019 23:00:00 22,4 19,9 20,6 20,9 16,1 6 4 8 5 S 1012,3 22 0 0,0
23.06.2019 22:00:00 23,5 20,4 21,5 20,8 16,1 6 3 10 5 SSW 1011,9 23 0 0,0
23.06.2019 21:00:00 26,5 18,9 23,5 20,7 16,1 5 3 11 6 NNE 1011,4 29 0 0,0
23.06.2019 20:00:00 28,3 20,3 26,3 20,5 16,1 8 4 16 9 NNE 1010,9 29 24 0,0
23.06.2019 19:00:00 29,5 18,6 29,5 20,3 16,1 10 5 21 11 N 1010,7 22 60 0,0
23.06.2019 18:00:00 29,1 18,8 29,3 20,0 16,1 13 7 19 10 N 1010,7 24 28 0,0
23.06.2019 17:00:00 29,4 18,8 31,4 19,8 16,1 13 7 22 12 N 1010,7 45 51 0,0
23.06.2019 16:00:00 29,8 19,2 33,6 19,5 16,1 14 7 26 14 NNE 1010,5 21 60 0,0
23.06.2019 15:00:00 30,1 18,5 32,9 19,3 16,1 14 8 29 15 N 1010,4 20 55 0,0
23.06.2019 14:00:00 31,3 16,9 35,6 19,1 16,1 14 7 22 12 NW 1010,2 19 60 0,0
23.06.2019 13:00:00 30,6 16,6 34,1 19,0 16,1 11 6 27 14 N 1010,3 40 58 0,0
23.06.2019 12:00:00 28,2 19,2 29,8 18,9 16,1 4 2 9 5 NNE 1010,1 30 36 0,0
23.06.2019 11:00:00 26,4 16,3 21,6 19,0 16,1 6 3 15 8 ESE 1010,5 31 34 0,0
23.06.2019 10:00:00 22,4 15,3 19,0 19,0 16,1 8 4 14 7 S 1011,0 39 15 0,0
23.06.2019 09:00:00 19,6 14,6 - - - 5 3 15 8 SSE 1011,3 30 - 0,0
23.06.2019 08:00:00 15,9 14,6 13,8 19,3 16,1 2 1 11 6 SW 1011,5 29 26 0,0
23.06.2019 07:00:00 13,5 12,2 12,9 19,4 16,1 4 2 9 5 SSE 1011,7 30 14 0,0
23.06.2019 06:00:00 13,4 12,5 12,9 19,5 16,1 6 4 11 6 S 1011,6 30 0 0,0
23.06.2019 05:00:00 13,4 12,6 13,0 19,6 16,1 8 4 11 6 SW 1011,9 26 0 0,0
23.06.2019 04:00:00 13,8 13,2 12,9 19,7 16,1 4 2 9 5 SW 1012,4 22 0 0,0
23.06.2019 03:00:00 14,4 13,6 13,2 19,8 16,1 3 2 6 3 SSW 1012,8 22 0 0,0
23.06.2019 02:00:00 15,0 14,2 14,3 19,9 16,1 4 2 7 4 S 1013,2 26 0 0,0
23.06.2019 01:00:00 15,4 14,1 15,0 19,9 16,1 6 3 8 4 S 1013,5 28 0 0,0
23.06.2019 00:00:00 17,7 14,0 14,9 19,9 16,1 4 2 10 5 E 1013,6 34 0 0,0
22.06.2019 23:00:00 18,5 13,8 16,2 19,9 16,1 8 4 14 8 NNE 1013,8 35 0 0,0
22.06.2019 22:00:00 20,1 13,5 17,0 19,8 16,1 5 3 16 9 ENE 1013,3 37 18 0,0
22.06.2019 21:00:00 21,8 13,9 19,3 19,6 16,1 10 6 22 12 NE 1013,2 37 46 0,0
22.06.2019 20:00:00 23,6 14,0 22,5 19,5 16,1 9 5 32 17 NE 1013,1 35 60 0,0
22.06.2019 19:00:00 23,7 14,4 24,2 19,2 16,1 13 7 25 13 NE 1013,2 30 35 0,0
22.06.2019 18:00:00 24,5 14,9 29,7 18,9 16,1 11 6 27 14 NE 1013,3 37 60 0,0
22.06.2019 17:00:00 24,0 15,0 29,9 18,6 16,1 14 7 27 15 NE 1013,7 29 57 0,0
22.06.2019 16:00:00 24,0 15,5 32,1 18,3 16,1 13 7 28 15 NE 1014,0 29 60 0,0
22.06.2019 15:00:00 23,7 15,5 32,7 18,1 16,1 10 5 30 16 NE 1014,7 22 60 0,0
22.06.2019 14:00:00 22,3 16,8 30,5 17,9 16,1 13 7 27 15 ENE 1015,9 21 60 0,0
22.06.2019 13:00:00 20,8 14,7 27,3 17,8 16,1 11 6 23 12 NE 1016,9 21 48 0,0
22.06.2019 12:00:00 20,2 14,3 26,9 17,7 16,1 13 7 23 12 NE 1017,2 46 58 0,0
22.06.2019 11:00:00 19,1 13,9 25,3 17,7 16,1 13 7 21 11 NNE 1017,3 25 60 0,0
22.06.2019 10:00:00 18,0 13,5 19,9 17,7 16,1 5 3 16 8 NE 1017,8 35 56 0,0
22.06.2019 09:00:00 16,2 13,1 15,5 17,8 16,1 6 4 16 9 E 1018,3 24 57 0,0
22.06.2019 08:00:00 13,6 13,4 11,4 17,9 16,1 7 4 13 7 NE 1018,7 7 46 0,0
22.06.2019 07:00:00 11,5 11,3 10,6 18,0 16,1 4 2 7 4 ESE 1019,6 0,2 12 0,0
22.06.2019 06:00:00 12,1 11,8 12,6 18,0 16,1 4 2 7 4 SSW 1019,2 14 0 0,0
22.06.2019 05:00:00 12,5 12,3 10,5 18,1 16,1 2 1 5 3 NNE 1019,3 10 0 0,0
22.06.2019 04:00:00 12,8 11,9 11,1 18,2 16,1 3 1 8 4 E 1019,7 15 0 0,0
22.06.2019 03:00:00 14,0 12,7 14,2 18,3 16,1 5 3 9 5 SSE 1020,3 21 0 0,0
22.06.2019 02:00:00 14,1 12,8 14,6 18,3 16,1 5 3 9 5 SSW 1021,0 23 0 0,0
22.06.2019 01:00:00 14,2 12,8 14,6 18,3 16,1 6 3 9 5 S 1021,3 22 0 0,0
22.06.2019 00:00:00 14,2 12,6 14,5 18,3 16,0 6 3 10 5 WSW 1021,5 23 0 0,0
21.06.2019 23:00:00 14,0 12,7 - - - 2 1 9 5 WSW 1021,6 20 - -
21.06.2019 22:00:00 14,4 12,8 14,8 18,4 16,0 6 3 15 8 WSW 1021,0 21 0 0,0
21.06.2019 21:00:00 14,7 12,9 15,3 18,4 16,1 10 5 16 8 W 1020,8 11 0 0,0
21.06.2019 20:00:00 14,7 12,7 15,8 18,4 16,0 8 4 20 11 WSW 1020,5 24 0 0,0
21.06.2019 19:00:00 14,9 13,1 16,8 18,4 16,0 12 7 44 24 W 1020,3 28 0 0,0
21.06.2019 18:00:00 15,1 12,8 17,5 18,4 16,0 16 9 29 15 W 1020,1 26 0 0,0
21.06.2019 17:00:00 14,7 12,9 17,1 18,4 16,0 18 10 34 18 W 1020,2 19 0 0,0
21.06.2019 16:00:00 15,1 12,6 17,5 18,4 16,0 19 10 34 19 W 1020,0 18 0 0,0
21.06.2019 15:00:00 14,9 12,8 16,3 18,5 16,0 20 11 36 19 W 1020,2 26 0 0,0
21.06.2019 14:00:00 14,5 12,4 15,4 18,5 16,0 18 10 33 18 W 1020,2 27 0 0,0
21.06.2019 13:00:00 14,2 12,6 15,3 18,6 16,0 19 10 41 22 W 1020,0 27 0 0,0
21.06.2019 12:00:00 13,7 12,8 14,4 18,6 15,9 20 11 35 19 W 1019,6 17 0 0,0

tt = Température de l'air
td = dewpoint
tt 5cm = Température de l'air 5cm
tt -20cm = Température de l'air -20cm
tt -100cm = Température de l'air -100cm
ff = Vitesse du vent
fx = gusts
dd = Direction du vent
ppp = reduced air pressure
vv = visibility
sd = Ensoleillement
rr = Quantités de précipitations

stations d'obs. à proximité